• Join FlightAware (Why Join?)
  • Login
  • US Flag GB Flag 
09:47 EDT


 

Airport Tracker/Info


-or-


 

Live Flight TrackerFlight Track Log ✈ OPT332 ✈ 06-Nov-2013 ✈ KSYR - KILM

Flight Track Log - Related Links

Times and Time Zones

All times are in EST time to prevent confusion due to time zone crossing. See the OPT332 flight status page for this flight to view local times or setup timezone preferences in your user account.

Time Position Orientation Groundspeed Altitude Reporting Facility
EST Latitude Longitude Course Direction KTS MPH feet Rate Location/Type
15:40 43.1086 -76.1014 133° Southeast 134 154 1,400  Level Boston Center
15:41 43.0881 -76.0717 133° Southeast 166 191 5,200 3,480 Climbing Boston Center
15:42 43.0656 -76.1114 232° Southwest 174 200 8,000 2,520 Climbing Boston Center
15:43 43.0331 -76.1800 237° Southwest 208 239 10,000 2,400 Climbing Boston Center
15:44 42.9831 -76.2558 228° Southwest 275 316 12,900 3,300 Climbing Boston Center
15:45 42.9072 -76.2706 188° South 281 323 16,900 3,300 Climbing Boston Center
15:46 42.8342 -76.2881 190° South 267 307 19,800 2,640 Climbing Boston Center
15:47 42.7436 -76.3081 189° South 298 343 22,300 2,460 Climbing Boston Center
15:48 42.6592 -76.3250 188° South 305 351 24,800 2,160 Climbing Boston Center
15:49 42.5744 -76.3442 189° South 307 353 26,800 1,800 Climbing Boston Center
15:50 42.4842 -76.3639 189° South 325 374 28,600 1,320 Climbing Boston Center
15:56 41.9123 -76.4815 189° South 358 412 36,100 1,200 Climbing FlightAware ADS-B (KWWD)
15:57 41.8372 -76.4974 189° South 358 412 36,900 1,020 Climbing FlightAware ADS-B (KWWD)
15:57 41.7853 -76.5082 189° South 373 429 37,400 360 Climbing FlightAware ADS-B (KWWD)
15:59 41.5525 -76.5567 189° South 406 467 38,000 180 Climbing FlightAware ADS-B (KWWD)
16:00 41.4753 -76.5726 189° South 406 467 38,000  Level FlightAware ADS-B (KWWD)
16:00 41.4195 -76.5840 189° South 406 467 38,000 960 Level FlightAware ADS-B (KWWD)
16:02 41.2064 -76.6276 189° South 371 427 40,500 1,260 Climbing FlightAware ADS-B (KWWD)
16:03 41.1447 -76.6402 189° South 363 418 41,300 1,140 Climbing FlightAware ADS-B (KWWD)
16:05 40.9883 -76.6724 189° South 362 417 43,000 720 Climbing FlightAware ADS-B (KWWD)
16:05 40.9169 -76.6876 189° South 361 415 43,000  Level FlightAware ADS-B (KWWD)
16:06 40.8633 -76.6989 189° South 373 429 43,000  Level FlightAware ADS-B (KWWD)
16:06 40.8121 -76.7090 188° South 370 426 43,000  Level FlightAware ADS-B (KWWD)
16:07 40.7912 -76.7117 186° South 379 436 43,000  Level FlightAware ADS-B (KAPG)
16:09 40.5787 -76.7361 185° South 384 442 43,000  Level FlightAware ADS-B (KAPG)
16:09 40.5186 -76.7435 185° South 376 433 43,000  Level FlightAware ADS-B (KWWD)
16:10 40.4557 -76.7511 185° South 376 433 43,000  Level FlightAware ADS-B (KWWD)
16:11 40.3392 -76.7653 185° South 375 432 43,000  Level FlightAware ADS-B (KWWD)
16:12 40.2819 -76.7723 185° South 383 441 43,000  Level FlightAware ADS-B (KAPG)
16:12 40.1858 -76.7840 185° South 384 442 43,000  Level FlightAware ADS-B (KAPG)
16:13 40.1292 -76.7909 185° South 385 443 43,000  Level FlightAware ADS-B (KWWD)
16:13 40.0810 -76.7967 185° South 386 444 43,000  Level FlightAware ADS-B (KAPG)
16:14 40.0433 -76.8012 185° South 387 445 43,000  Level FlightAware ADS-B (KAPG)
16:14 39.9503 -76.8124 185° South 387 445 43,000  Level FlightAware ADS-B (KAPG)
16:15 39.8702 -76.8221 185° South 389 448 43,000  Level FlightAware ADS-B (KAPG)
16:16 39.7923 -76.8315 185° South 390 449 43,000  Level FlightAware ADS-B (KWWD)
16:16 39.7350 -76.8383 185° South 392 451 43,000  Level FlightAware ADS-B (KWWD)
16:17 39.6782 -76.8450 185° South 393 452 43,000  Level FlightAware ADS-B (KAPG)
16:18 39.6231 -76.8516 185° South 394 453 43,000  Level FlightAware ADS-B (KAPG)
16:18 39.5560 -76.8596 185° South 394 453 43,000  Level FlightAware ADS-B (KAPG)
16:19 39.4771 -76.8689 185° South 393 452 43,000  Level FlightAware ADS-B (KAPG)
16:19 39.4103 -76.8768 185° South 385 443 43,000  Level FlightAware ADS-B (KWWD)
16:20 39.3548 -76.8834 185° South 394 453 43,000  Level FlightAware ADS-B (KAPG)
16:21 39.2807 -76.8921 185° South 386 444 43,000 -120 Level FlightAware ADS-B (KWWD)
16:21 39.2077 -76.9008 185° South 387 445 42,900 -720 Descending FlightAware ADS-B (KWWD)
16:22 39.1539 -76.9069 185° South 390 449 42,200 -1,320 Descending FlightAware ADS-B (KWWD)
16:22 39.1144 -76.9045 177° South 408 470 41,800 -1,320 Descending FlightAware ADS-B (KWWD)
16:23 39.0665 -76.8881 165° South 424 488 41,200 -1,320 Descending FlightAware ADS-B (KWWD)
16:23 38.9988 -76.8584 161° South 433 498 40,500 -1,320 Descending FlightAware ADS-B (KWWD)
16:23 38.9687 -76.8366 151° Southeast 465 535 40,100 -840 Descending FlightAware ADS-B (KWWD)
16:24 38.9342 -76.8082 147° Southeast 465 535 40,000 -120 Descending FlightAware ADS-B (KAPG)
16:24 38.8564 -76.7545 152° Southeast 451 519 40,000  Level FlightAware ADS-B (KWWD)
16:25 38.8323 -76.7470 166° South 412 474 40,000  Level FlightAware ADS-B (KWWD)
16:25 38.7763 -76.7368 172° South 410 472 40,000  Level FlightAware ADS-B (KWWD)
16:25 38.7365 -76.7335 176° South 373 429 40,000  Level FlightAware ADS-B (KWWD)
16:26 38.6790 -76.7411 186° South 387 445 40,000  Level FlightAware ADS-B (KWWD)
16:26 38.6373 -76.7293 167° South 421 484 40,000  Level FlightAware ADS-B (KWWD)
16:27 38.6133 -76.7041 141° Southeast 447 514 40,000  Level FlightAware ADS-B (KWWD)
16:27 38.5974 -76.6674 119° Southeast 460 529 40,000  Level FlightAware ADS-B (KWWD)
16:27 38.5930 -76.6361 100° East 462 532 40,000  Level FlightAware ADS-B (KWWD)
16:27 38.5946 -76.6089 85° East 458 527 40,000  Level FlightAware ADS-B (KWWD)
16:27 38.6012 -76.5836 72° East 449 517 40,000  Level FlightAware ADS-B (KWWD)
16:28 38.6213 -76.5498 53° Northeast 413 475 40,000  Level FlightAware ADS-B (KWWD)
16:28 38.6371 -76.5366 33° Northeast 399 459 40,000  Level FlightAware ADS-B (KWWD)
16:28 38.6493 -76.5310 20° North 378 435 40,000  Level FlightAware ADS-B (KWWD)
16:28 38.6726 -76.5297 North 351 404 40,000  Level FlightAware ADS-B (KWWD)
16:28 38.6896 -76.5355 345° North 339 390 40,000  Level FlightAware ADS-B (KWWD)
16:29 38.7352 -76.5521 344° North 337 388 40,000  Level FlightAware ADS-B (KWWD)
16:29 38.7830 -76.5693 344° North 350 403 40,000  Level FlightAware ADS-B (KWWD)
16:30 38.8416 -76.5924 343° North 336 387 40,000  Level FlightAware ADS-B (KWWD)
16:30 38.8671 -76.6136 327° Northwest 326 375 40,000  Level FlightAware ADS-B (KWWD)
16:31 38.8855 -76.6419 310° West 318 366 40,000  Level FlightAware ADS-B (KWWD)
16:31 38.8954 -76.6708 294° West 312 359 40,000  Level FlightAware ADS-B (KWWD)
16:31 38.8983 -76.7140 275° West 316 364 40,000  Level FlightAware ADS-B (KWWD)
16:32 38.8811 -76.7701 249° West 335 386 40,000  Level FlightAware ADS-B (KWWD)
16:32 38.8378 -76.7932 203° Southwest 406 467 40,000  Level FlightAware ADS-B (KWWD)
16:33 38.7977 -76.7802 166° South 433 498 40,000  Level FlightAware ADS-B (KWWD)
16:33 38.7182 -76.7416 159° South 422 486 40,000  Level FlightAware ADS-B (KWWD)
16:34 38.6917 -76.7185 146° Southeast 471 542 40,000  Level FlightAware ADS-B (KWWD)
16:34 38.6733 -76.6860 126° Southeast 480 552 40,000  Level FlightAware ADS-B (KWWD)
16:34 38.6629 -76.6374 105° East 489 563 40,000  Level FlightAware ADS-B (KWWD)
16:34 38.6627 -76.6235 91° East 487 560 40,000  Level FlightAware ADS-B (KWWD)
16:35 38.6716 -76.5756 77° East 476 548 40,000  Level FlightAware ADS-B (KWWD)
16:35 38.6813 -76.5542 60° Northeast 459 528 40,000  Level FlightAware ADS-B (KWWD)
16:35 38.7018 -76.5287 44° Northeast 433 498 40,000  Level FlightAware ADS-B (KWWD)
16:35 38.7301 -76.5131 23° Northeast 396 456 40,000 -360 Level FlightAware ADS-B (KWWD)
16:36 38.7684 -76.5172 355° North 356 410 39,800 -840 Descending FlightAware ADS-B (KWWD)
16:36 38.8344 -76.5671 330° Northwest 319 367 39,000 -960 Descending FlightAware ADS-B (KWWD)
16:37 38.8389 -76.5829 290° West 314 361 38,900 -900 Descending FlightAware ADS-B (KWWD)
16:37 38.8450 -76.6391 278° West 310 357 38,400 -960 Descending FlightAware ADS-B (KWWD)
16:38 38.8318 -76.6871 251° West 319 367 38,000 -480 Descending FlightAware ADS-B (KWWD)
16:38 38.8066 -76.7159 222° Southwest 329 379 38,000  Level FlightAware ADS-B (KWWD)
16:38 38.7781 -76.7344 207° Southwest 365 420 38,000  Level FlightAware ADS-B (KWWD)
16:39 38.7268 -76.7426 187° South 388 447 38,000  Level FlightAware ADS-B (KWWD)
16:39 38.7155 -76.7404 171° South 402 463 38,000  Level FlightAware ADS-B (KWWD)
16:39 38.6959 -76.7309 159° South 423 487 38,000  Level FlightAware ADS-B (KWWD)
16:39 38.6745 -76.7096 142° Southeast 443 510 38,000  Level FlightAware ADS-B (KWWD)
16:40 38.6501 -76.6386 114° Southeast 475 547 38,000  Level FlightAware ADS-B (KWWD)
16:40 38.6512 -76.6073 87° East 474 545 38,000  Level FlightAware ADS-B (KWWD)
16:40 38.6629 -76.5672 70° East 454 522 38,000  Level FlightAware ADS-B (KWWD)
16:41 38.6978 -76.5262 42° Northeast 417 480 38,000  Level FlightAware ADS-B (KWWD)
16:41 38.7136 -76.5194 18° North 393 452 38,000  Level FlightAware ADS-B (KWWD)
16:41 38.7337 -76.5182 North 373 429 38,000  Level FlightAware ADS-B (KWWD)
16:41 38.7510 -76.5244 344° North 344 396 38,000  Level FlightAware ADS-B (KWWD)
16:41 38.7781 -76.5447 330° Northwest 332 382 38,000  Level FlightAware ADS-B (KWWD)
16:42 38.7977 -76.5739 311° West 321 369 38,000  Level FlightAware ADS-B (KWWD)
16:42 38.8043 -76.5903 297° West 314 361 38,000  Level FlightAware ADS-B (KWWD)
16:42 38.8109 -76.6204 286° West 315 362 38,000  Level FlightAware ADS-B (KWWD)
16:42 38.8116 -76.6467 272° West 316 364 38,000  Level FlightAware ADS-B (KWWD)
16:43 38.8054 -76.6815 257° West 320 368 38,000  Level FlightAware ADS-B (KWWD)
16:43 38.7974 -76.7021 244° Southwest 326 375 38,000  Level FlightAware ADS-B (KWWD)
16:43 38.7903 -76.7153 235° Southwest 329 379 38,000  Level FlightAware ADS-B (KWWD)
16:43 38.7713 -76.7398 225° Southwest 339 390 38,000  Level FlightAware ADS-B (KWWD)
16:44 38.7277 -76.7839 218° Southwest 350 403 38,000  Level FlightAware ADS-B (KWWD)
16:45 38.6880 -76.8203 216° Southwest 352 405 38,000  Level FlightAware ADS-B (KWWD)
16:45 38.6582 -76.8342 200° South 365 420 38,000 -360 Level FlightAware ADS-B (KWWD)
16:45 38.6211 -76.8388 186° South 388 447 37,800 -1,020 Descending FlightAware ADS-B (KWWD)
16:46 38.5738 -76.8265 169° South 399 459 37,200 -900 Descending FlightAware ADS-B (KWWD)
16:46 38.5297 -76.7930 149° Southeast 425 489 37,000 -300 Descending FlightAware ADS-B (KWWD)
16:46 38.4999 -76.7513 132° Southeast 436 502 37,000  Level FlightAware ADS-B (KWWD)
16:47 38.4791 -76.7008 118° Southeast 442 509 37,000  Level FlightAware ADS-B (KWWD)
16:47 38.4685 -76.6447 104° East 449 517 37,000 -120 Level FlightAware ADS-B (KWWD)
16:48 38.4737 -76.5575 86° East 448 516 36,900 -1,200 Descending FlightAware ADS-B (KWWD)
16:48 38.4834 -76.5210 71° East 418 481 36,000 -4,560 Descending FlightAware ADS-B (KWWD)
16:49 38.5246 -76.4425 56° Northeast 413 475 32,800 -5,640 Descending FlightAware ADS-B (KWWD)
16:49 38.5541 -76.4039 46° Northeast 403 464 30,600 -5,520 Descending FlightAware ADS-B (KWWD)
16:49 38.5723 -76.3869 36° Northeast 385 443 29,600 -4,920 Descending FlightAware ADS-B (KWWD)
16:50 38.6278 -76.3550 24° Northeast 353 406 26,700 -4,920 Descending FlightAware ADS-B (KWWD)
16:50 38.6530 -76.3486 11° North 344 396 25,500 -2,880 Descending FlightAware ADS-B (KWWD)
16:51 38.7157 -76.3349 10° North 373 429 24,200 -1,320 Descending FlightAware ADS-B (KWWD)
16:51 38.7711 -76.3224 10° North 395 455 24,000 -180 Descending FlightAware ADS-B (KWWD)
16:52 38.8410 -76.3068 10° North 412 474 24,000  Level FlightAware ADS-B (KWWD)
16:52 38.9014 -76.2935 10° North 411 473 24,000  Level FlightAware ADS-B (KWWD)
16:53 38.9765 -76.2768 10° North 405 466 24,000  Level FlightAware ADS-B (KWWD)
16:54 39.0334 -76.2642 10° North 394 453 24,000  Level FlightAware ADS-B (KWWD)
16:54 39.1032 -76.2485 10° North 394 453 24,000  Level FlightAware ADS-B (KWWD)
16:54 39.1399 -76.2318 19° North 414 476 24,000  Level FlightAware ADS-B (KWWD)
16:55 39.1880 -76.1857 37° Northeast 427 491 24,000  Level FlightAware ADS-B (KWWD)
16:56 39.2484 -76.1151 42° Northeast 423 487 24,000  Level FlightAware ADS-B (KWWD)
16:56 39.2947 -76.0672 39° Northeast 418 481 24,000 -300 Level FlightAware ADS-B (KWWD)
16:56 39.2915 -76.0701 215° Southwest 424 488 23,800 -1,560 Descending FlightAware ADS-B (KAPG)
16:57 39.3706 -75.9961 36° Northeast 418 481 22,800 -2,040 Descending FlightAware ADS-B (KWWD)
16:58 39.4343 -75.9358 36° Northeast 398 458 21,300 -2,160 Descending FlightAware ADS-B (KWWD)
16:58 39.4933 -75.8800 36° Northeast 396 456 19,900 -2,160 Descending FlightAware ADS-B (KWWD)
16:59 39.5379 -75.8377 36° Northeast 397 457 18,800 -2,400 Descending FlightAware ADS-B (KWWD)
16:59 39.5737 -75.8036 36° Northeast 385 443 17,300 -2,280 Descending FlightAware ADS-B (KAPG)
17:00 39.6412 -75.7413 35° Northeast 383 441 16,200 -180 Descending FlightAware ADS-B (KWWD)
17:00 39.6456 -75.7372 35° Northeast 387 445 17,200 -2,160 Climbing FlightAware ADS-B (KAPG)
17:01 39.6948 -75.6922 35° Northeast 377 434 14,900 -3,240 Descending FlightAware ADS-B (KWWD)
17:01 39.7411 -75.6496 35° Northeast 377 434 13,800 -1,860 Descending FlightAware ADS-B (KWWD)
17:02 39.7906 -75.6041 35° Northeast 361 415 12,800 -1,200 Descending FlightAware ADS-B (KWWD)
17:02 39.8208 -75.5763 35° Northeast 359 413 12,700 -120 Descending FlightAware ADS-B (KWWD)
17:03 39.8661 -75.5344 35° Northeast 361 415 12,700  Level FlightAware ADS-B (KWWD)
17:03 39.9317 -75.4736 35° Northeast 360 414 12,700  Level FlightAware ADS-B (KWWD)
17:04 39.9892 -75.4203 35° Northeast 362 417 12,700  Level FlightAware ADS-B (KWWD)
17:05 40.0473 -75.3664 35° Northeast 364 419 12,700  Level FlightAware ADS-B (KWWD)
17:05 40.0976 -75.3196 35° Northeast 373 429 12,700 -120 Level FlightAware ADS-B (KWWD)
17:06 40.1562 -75.2648 36° Northeast 374 430 12,600 -840 Descending FlightAware ADS-B (KWWD)
17:07 40.2005 -75.2234 35° Northeast 359 413 11,700 -1,620 Descending FlightAware ADS-B (KWWD)
17:07 40.2490 -75.1783 35° Northeast 341 392 10,800 -1,680 Descending FlightAware ADS-B (KWWD)
17:08 40.2903 -75.1396 36° Northeast 337 388 9,800 -1,920 Descending FlightAware ADS-B (KWWD)
17:08 40.3171 -75.1142 36° Northeast 326 375 9,100 -1,800 Descending FlightAware ADS-B (KWWD)
17:09 40.3383 -75.0869 44° Northeast 325 374 8,600 -1,740 Descending FlightAware ADS-B (KWWD)
17:09 40.3680 -75.0448 47° Northeast 314 361 7,700 -1,800 Descending FlightAware ADS-B (KWWD)
17:09 40.3960 -75.0058 47° Northeast 312 359 6,900 -1,620 Descending FlightAware ADS-B (KWWD)
17:10 40.4176 -74.9754 47° Northeast 314 361 6,400 -1,500 Descending FlightAware ADS-B (KWWD)
17:10 40.4330 -74.9537 47° Northeast 315 362 6,000 -1,680 Descending FlightAware ADS-B (KWWD)
17:10 40.4549 -74.9230 47° Northeast 314 361 5,400 -1,680 Descending FlightAware ADS-B (KWWD)
17:11 40.4694 -74.9025 47° Northeast 309 356 5,000 -900 Descending FlightAware ADS-B (KWWD)
17:12 40.5333 -74.8167 47° Northeast 291 335 4,100 -480 Descending New York TRACON
17:13 40.5833 -74.7333 52° Northeast 293 337 4,000 -60 Descending New York TRACON
17:14 40.6500 -74.6833 30° Northeast 272 313 4,000  Level New York TRACON
17:15 40.7167 -74.6500 21° North 245 282 4,100 -240 Climbing New York TRACON
17:20 41.0363 -74.4187 21° North 218 251 2,800 -240 Descending FlightAware ADS-B
17:21 41.0563 -74.3871 50° Northeast 219 252 2,800 -120 Level FlightAware ADS-B
17:25 41.0766 -74.1207 84° East 180 207 2,500 -180 Descending FlightAware ADS-B
17:25 41.0698 -74.0968 111° Southeast 176 203 2,200 -660 Descending FlightAware ADS-B
17:26 41.0653 -74.0835 114° Southeast 167 192 2,100 -660 Descending FlightAware ADS-B
17:26 41.0571 -74.0756 144° Southeast 160 184 1,900 -540 Descending FlightAware ADS-B
17:26 41.0417 -74.0645 151° Southeast 159 183 1,800 -180 Descending FlightAware ADS-B
17:27 41.0316 -74.0573 152° Southeast 156 180 1,800  Level FlightAware ADS-B
17:27 41.0169 -74.0470 152° Southeast 157 181 1,800  Level FlightAware ADS-B
17:27 41.0140 -74.0461 167° South 156 180 1,800  Level FlightAware ADS-B
17:27 41.0109 -74.0458 176° South 156 180 1,800  Level FlightAware ADS-B
17:27 41.0018 -74.0469 185° South 155 178 1,800  Level FlightAware ADS-B
17:28 40.9882 -74.0493 188° South 156 180 1,800  Level FlightAware ADS-B
17:28 40.9825 -74.0498 184° South 155 178 1,800  Level FlightAware ADS-B
17:28 40.9761 -74.0502 183° South 154 177 1,800  Level FlightAware ADS-B
17:28 40.9650 -74.0510 183° South 153 176 1,800  Level FlightAware ADS-B
17:28 40.9541 -74.0515 182° South 151 174 1,800 -420 Level FlightAware ADS-B
17:29 40.9433 -74.0524 184° South 151 174 1,600 -840 Descending FlightAware ADS-B
17:29 40.9339 -74.0533 184° South 148 170 1,400 -900 Descending FlightAware ADS-B
17:29 40.9241 -74.0540 183° South 135 155 1,200 -780 Descending FlightAware ADS-B
17:29 40.9151 -74.0547 183° South 119 137 1,000 -780 Descending FlightAware ADS-B
17:30 40.9072 -74.0553 183° South 110 127 800 -720 Descending FlightAware ADS-B
17:30 40.9014 -74.0557 183° South 108 124 700 -540 Descending FlightAware ADS-B
17:30 40.8953 -74.0562 184° South 110 127 600 -660 Descending FlightAware ADS-B
17:30 40.8873 -74.0568 183° South 111 128 400 -600 Descending FlightAware ADS-B
17:31 40.8794 -74.0573 183° South 105 121 300 -480 Descending FlightAware ADS-B
17:31 40.8746 -74.0576 183° South 105 121 200 -600 Descending FlightAware ADS-B
17:32 40.8513 -74.0595 184° South 90 104 -300 Descending FlightAware ADS-B